Location: ActonStarParty
(42.4766°N, 71.4538°W)
Time: 22:21:01
(UTC-04:00)

Cosmos 1300 - Visible Passes

Search period start: 20 August 2014 00:00
Search period end: 30 August 2014 00:00
Orbit: 531 x 533 km, 82.5° (Epoch: 20 August)

Date Brightness Start Highest point End Pass type
(mag) Time Alt. Az. Time Alt. Az. Time Alt. Az.
20 Aug 3.9 03:32:22 34° SE 03:33:14 39° E 03:36:55 10° NNE visible
20 Aug 4.6 05:07:44 12° W 05:09:29 15° WNW 05:11:46 10° NW visible
21 Aug 3.9 03:22:52 36° ESE 03:23:15 37° E 03:26:53 10° NNE visible
21 Aug 4.6 04:58:14 14° W 04:59:28 16° WNW 05:01:53 10° NNW visible
22 Aug 4.1 03:13:20 35° E 03:13:20 35° E 03:16:51 10° NNE visible
22 Aug 4.5 04:48:42 16° W 04:49:26 16° WNW 04:51:59 10° NNW visible
23 Aug 4.4 03:03:46 32° ENE 03:03:46 32° ENE 03:06:49 10° NNE visible
23 Aug 4.4 04:39:08 17° WNW 04:39:25 17° WNW 04:42:05 10° NNW visible
24 Aug 4.7 02:54:11 28° ENE 02:54:11 28° ENE 02:56:46 10° NNE visible
24 Aug 4.5 04:29:32 18° WNW 04:29:32 18° WNW 04:32:10 10° NNW visible
25 Aug 5.0 02:44:34 24° ENE 02:44:34 24° ENE 02:46:43 10° NNE visible
25 Aug 4.5 04:19:56 19° WNW 04:19:56 19° WNW 04:22:14 10° NNW visible
26 Aug 5.2 02:34:56 20° NE 02:34:56 20° NE 02:36:39 10° NNE visible
26 Aug 4.6 04:10:17 19° NW 04:10:17 19° NW 04:12:18 10° NNW visible
27 Aug 5.5 02:25:16 17° NE 02:25:16 17° NE 02:26:35 10° NNE visible
27 Aug 4.7 04:00:38 18° NW 04:00:38 18° NW 04:02:21 10° NNW visible
28 Aug 5.7 02:15:35 15° NE 02:15:35 15° NE 02:16:30 10° NE visible
28 Aug 4.8 03:50:57 17° NW 03:50:57 17° NW 03:52:24 10° NNW visible
29 Aug 5.9 02:05:53 13° NE 02:05:53 13° NE 02:06:25 10° NE visible
29 Aug 5.0 03:41:15 16° NNW 03:41:15 16° NNW 03:42:27 10° NNW visible
